Погода Рудная Пристань

Погода Рудная Пристань : погода сейчас, прогноз погоды и архив. Всё, что Вы хотите узнать о погоде Рудная Пристань!

Хотите узнать прогноз погоды Рудная Пристань? Тогда Вам сюда: Погода Рудная Пристань

Поиск расширенной информации на нашем сайте:

Другие новости

Новости СМИ2

Главная страница сайта

Новости сайта

02.10.2013

Напоминаем, что на нашем новом сайте вы можете получить высокодетализированные прогнозы погоды по пунктам России, СНГ и мира (включающие важные для авиации метеовеличины, такие как направление и скорость ветра, видимость, явления погоды, количество и форма облачности, нижняя и верхняя граница облачности), а также ознакомиться с разнообразными материалами по авиационной метеорологии и подборкой полезных ссылок на эту тему.

Сайт Метеоцентр.Азия посвящён разработке технологий оптимизации авиаметеорологического обслуживания, включая проектирование и перспективное создание нескольких автоматизированных авиаметеорологических систем:
- система выпуска высокодетальных прогностических карт явлений погоды для нижнего воздушного пространства по России и ближнему зарубежью;
- система верификации прогнозов TAF (выпускаемых синоптиками официальных АМСГ РФ и ближнего зарубежья) и AUTOTAF (выпускаемых сайтом Метеоцентр.Азия) - выявление ошибок, онлайн-сопоставление с фактической погодой METAR, автоматическое внесение коррективов в прогнозы при резком отклонении фактической погоды от прогноза, подсчёт оправдываемости прогнозов по элементам и в целом;
- система обработки, анализа и отображения авиаметеорологической информации для применения провайдерами метеорологической информации.

Рекомендуем: Нетбук в СВАО ремонт компьютеров компьютерная помощь одинцово VIP сервис

Погода Рудная Пристань - сегодня

Время (UTC), дата Ветер
(°,м/с) 
Видим.   Явления Облачность Т
(°С)
Тd
(°С)
f(%) Тe
(°С)
Pmin
(гПа)
dP
(гПа)
Po
(мм)
O2
(г/м3)
Тmin Tmax R s Состояние
почвы
00 21.01.17 270 (З) 5-11{13}  20000 м    ясно 
-11.4 -23 38 -16  1025.1  1.2  765  324           
03 21.01.17 280 (З) 5{13}  20000 м    ясно 
-7.1 -21.4 31 -11  1023.6  -1.4  764  318           
06 21.01.17 170 (Ю) 20000 м    3/0 верхняя 
[Ci sp]
-4.7 -17.4 36 -7  1021.6  -1.9  763  314           
09 21.01.17 320 (СЗ) 20000 м    3/3 600 м верхняя 
[Sc|Ci sp]
-7.1 -20 35 -7  1021.9  0.2  763  317    -4.1       
12 21.01.17 270 (З) 20000 м    4/4 600 м 
[Sc]
-11.1 -17.8 58 -13  1021.4  -0.6  763  322           
15 21.01.17 310 (СЗ) 20000 м    6/4 600 м средняя 
[Sc|Ac trans]
-10.8 -17.6 57 -13  1019.8  -1.6  761  321           
18 21.01.17 260 (З) 20000 м    4/4 600 м 
[Sc]
-12 -18.4 59 -15  1018.4  -1.4  760  322           
21 21.01.17 290 (З) 20000 м    8/6 600 м верхняя 
[Sc|Ci sp]
-10.3 -19.7 46 -14  1017.3  -1.1  760  320  -13.3      мокрый или
старый снег
10-40% 
00 22.01.17 290 (З) 20000 м    9/6 600 м средняя, верхняя 
[Sc|Ac trans|Ci sp]
-9.8 -18.9 47 -14  1016.9  -0.4  759  319           
03 22.01.17 270 (З) 20000 м    4/3 600 м верхняя 
[Sc|Ci fib]
-6.4 -18.9 36 -10  1015  -1.8  758  314           
06 22.01.17 060 (СВ) 20000 м    3/3 600 м верхняя 
[Sc|Ci sp]
-5.1 -20.9 28 -5  1013.9  -1.1  757  312           
09 22.01.17 260 (З) 6-12{12}  20000 м    1/0 верхняя 
[Ci sp]
-9.3 -22.3 34 -15  1015.7  1.8  758  318    -4.9       
12 22.01.17 270 (З) 7-16{16}  20000 м    3/0 верхняя 
[Ci sp]
-12.7 -23.3 41 -19  1017.5  1.7  760  323           
15 22.01.17 270 (З) 7-13{17}  20000 м    ясно 
-14.2 -25 40 -21  1018.2  0.7  760  325           
18 22.01.17 270 (З) 7-13{16}  20000 м    ясно 
-15.4 -26.1 39 -22  1018.8  0.6  761  327           
21 22.01.17 260 (З) 7-16{16}  20000 м    ясно 
-16.2 -26.6 40 -23  1019.4  0.6  761  328  -16.2      мокрый или
старый снег
10-40% 
00 23.01.17 260 (З) 7-13{16}  20000 м    1/1 600 м 
[Sc]
-15.7 -26.9 38 -23  1020.3  0.9  762  327  -16.5         
03 23.01.17 170 (Ю) 2{13}  20000 м    4/3 600 м верхняя 
[Sc|Ci sp]
-10.9 -25.3 29 -13  1019.3  -0.9  761  321           
06 23.01.17 240 (ЮЗ) 4-11{13}  20000 м    8/0 средняя, верхняя 
[Ac lent|Ci sp]
-10.9 -25.4 29 -15  1018.7  -0.6  761  321           
09 23.01.17 240 (ЮЗ) 3{12}  20000 м    8/6 600 м верхняя 
[Sc|Ci fib]
-13.5 -26 34 -17  1021.1  2.3  762  325    -10.4       
12 23.01.17 230 (ЮЗ) 5-10{15}  20000 м    4/4 600 м 
[Sc]
-15.3 -26.1 39 -21  1021.3  0.2  763  327           
18 23.01.17 260 (З) 8-17{19}  20000 м    1/0 верхняя 
[Ci fib]
-15.5 -26.6 38 -23  1021.4  -0.2  763  328           
21 23.01.17 260 (З) 7-14{18}  20000 м    ясно 
-15.3 -26.4 38 -22  1022.1  0.7  763  327  -15.8      мокрый или
старый снег
10-40% 
00 24.01.17 260 (З) 6-14{17}  20000 м    ясно 
-14.5 -26.9 34 -21  1023.3  1.2  764  327           
03 24.01.17 240 (ЮЗ) 4-10{17}  20000 м    4/0 верхняя 
[Ci sp]
-10.6 -25.4 29 -15  1022.5  -0.8  764  322           
Время (UTC), дата Ветер
(°,м/с) 
Видим.   Явления Облачность Т
(°С)
Тd
(°С)
f(%) Тe
(°С)
Pmin
(гПа)
dP
(гПа)
Po
(мм)
O2
(г/м3)
Тmin Tmax R s Состояние
почвы

Для получения пояснительной информации подведите курсор к названию столбца.

ПОГОДА Рудная Пристань - архив

Всё, что Вы хотите узнать о погоде Рудная Пристань - удобно и подробно!

Выберите нужную дату (начиная с 1 января 2015* года) и нажмите кнопку "Найти".
Будут отображены архивные сводки погоды по пункту Рудная Пристань, начиная с указанной даты.


Отображать данные в формате CSV (для использования в таблицах Excel)


Внимание! Наш архив погоды предназначен исключительно для личного некоммерческого использования в познавательных целях. Если Вам необходимы официальные справки о состоянии погоды (для производственных, юридических, коммерческих и т.п. целей), обращайтесь в органы Росгидромета.

*Примечание: данная дата относится к архиву по метеостанциям СССР (Россия, СНГ, Балтия).
Архив по метеостанциям Зарубежной Европы и Азии (кроме Китая) хранится 10 дней, по другим регионам земного шара (Китай, Африка, Америка, Австралия, Океания) - 1 день.

Рудная Пристань - район местоположения метеостанции


Название, широта, долгота, высота метеостанции:
Рудная Пристань 44.4°ш. 135.9°д. 34 м над ур. моря [Российская Федерация]

Дополнительная информация

В oтличие oт бoльшинства пoгoдных сайтoв мы публикуем пoдрoбную метеoинфoрмацию в детальнoм прoфессиoнальнoм фoрмате.

Характеристики температуры и влажнoсти вoздуха измеряются на высoте 2 м в тени вдали oт зданий и деревьев.
Скoрoсть ветра измеряется на высoте 10 м (на урoвне рoста челoвека скoрoсть ветра ниже в 1.5-2 раза). Если метеoстанция нахoдится в гoрoде или в лесу, тo скoрoсть ветра занижена на 2-4 м/с пo сравнению с oткрытым местoм. Скoрoсть ветра над акватoриями крупных рек и oзёр, а также на вершинах хoлмoв на 2-5 м/с выше, чем в oбычных услoвиях.
Атмoсфернoе давление в разных тoчках местнoсти мoжет значительнo oтличаться oт давления на метеoстанции, в зависимoсти oт услoвий рельефа (при пoдъёме на 10 м давление пoнижается примернo на 1 мм рт.ст.).